This is the latest recevied weather packets stored in our database for station/object DL6MAA-11. If no packets are shown the sender has not sent any weather packets the latest 10 day(s).
| Time | Temp. | Humidity | Pressure | Rain* | Wind** | Luminosity | Snow |
|---|---|---|---|---|---|---|---|
| 1777709238 | 17.22° C | 48% | 1020.1 hPa | 0 mm | - | 418 W/m² | - |
| 1777708940 | 17.22° C | 49% | 1020.1 hPa | 0 mm | - | 410 W/m² | - |
| 1777708623 | 16.67° C | 48% | 1020.2 hPa | 0 mm | - | 396 W/m² | - |
| 1777708331 | 16.67° C | 50% | 1020.2 hPa | 0 mm | - | 388 W/m² | - |
| 1777708039 | 16.11° C | 52% | 1020.2 hPa | 0 mm | - | 380 W/m² | - |
| 1777707724 | 16.11° C | 49% | 1020.4 hPa | 0 mm | - | 380 W/m² | - |
| 1777707438 | 16.11° C | 53% | 1020.4 hPa | 0 mm | - | 369 W/m² | - |
| 1777707121 | 15.56° C | 50% | 1020.4 hPa | 0 mm | - | 360 W/m² | - |
| 1777706827 | 15° C | 53% | 1020.7 hPa | 0 mm | - | 355 W/m² | - |
| 1777706535 | 14.44° C | 51% | 1020.7 hPa | 0 mm | - | 341 W/m² | - |
| 1777706241 | 14.44° C | 53% | 1020.7 hPa | 0 mm | - | 332 W/m² | - |
| 1777705941 | 13.89° C | 54% | 1020.6 hPa | 0 mm | - | 325 W/m² | - |
| 1777705626 | 13.33° C | 53% | 1020.6 hPa | 0 mm | - | 313 W/m² | - |
| 1777705333 | 13.33° C | 59% | 1020.6 hPa | 0 mm | - | 306 W/m² | - |
| 1777705036 | 13.33° C | 62% | 1020.8 hPa | 0 mm | - | 302 W/m² | - |
| 1777704738 | 12.22° C | 65% | 1020.8 hPa | 0 mm | - | 290 W/m² | - |
| 1777704439 | 11.67° C | 65% | 1020.8 hPa | 0 mm | - | 283 W/m² | - |
| 1777704140 | 11.67° C | 64% | 1019.9 hPa | 0 mm | - | 272 W/m² | - |
| 1777703826 | 11.11° C | 65% | 1019.9 hPa | 0 mm | - | 262 W/m² | - |
| 1777703529 | 11.11° C | 65% | 1019.9 hPa | 0 mm | - | 250 W/m² | - |
| 1777703236 | 10.56° C | 65% | 1020 hPa | 0 mm | - | 248 W/m² | - |
| 1777702939 | 10.56° C | 67% | 1020 hPa | 0 mm | - | 237 W/m² | - |
| 1777702628 | 10° C | 67% | 1020 hPa | 0 mm | - | 229 W/m² | - |
| 1777702329 | 9.44° C | 68% | 1019.8 hPa | 0 mm | - | 216 W/m² | - |
| 1777702028 | 9.44° C | 69% | 1019.8 hPa | 0 mm | - | 202 W/m² | - |
* Rain since midnight (hover to see other rain measurements)
** Current wind speed in m/s (hover to see current wind gust speed)